Retour au catalogue

LEMUR 2 CHRIS

LostScienceLEO
NORAD 40933·PAYLOAD·🇺🇸 United States

Lancé Sep 28, 2015 depuis Satish Dhawan Space Centre

Loading…

Prochains Passages (prochaines 24 heures)

TLE

PériméSource: Space-Track

Époque: Feb 19, 2024, 08:18 UTC

1 40933U 15052D   24050.34614090  .00008209  00000-0  86789-3 0  9990
2 40933   6.0022  57.3568 0012335 326.7853  33.1501 14.84525301454530

Suivez LEMUR 2 CHRIS en temps réel avec AllMySat

Download on the App Store